Ravenna, OH

3:25 AM EST on January 24, 2018 (GMT -0500)
Ravenna

Weather History for KPOV - March, 2012

Change the Weather History Date:

Wednesday, March 7, 2012

  Actual Average (KCAK) Record (KCAK)
Temperature  
Mean Temperature 54 °F -  
Max Temperature 64 °F 42 °F 76 °F (1983)
Min Temperature 45 °F 26 °F 3 °F (1913)
Degree Days  
Heating Degree Days 10    
Growing Degree Days 4 (Base 50)    
Moisture  
Dew Point 30 °F    
Average Humidity 39    
Maximum Humidity 52    
Minimum Humidity 31    
Precipitation  
Precipitation 0.00 in - - ()
Sea Level Pressure  
Sea Level Pressure 30.22 in    
Wind  
Wind Speed 7 mph ()    
Max Wind Speed 15 mph    
Max Gust Speed 33 mph    
Visibility 10.0 miles    
Events      
Averages and records for this station are not official NWS values.
T = Trace of Precipitation, MM = Missing Value Source: Averaged Metar Reports

Daily Weather History Graph

Daily Weather History Graph

Search for Another Location

Airport or City:

Trip Planner

Search our weather history database for the weather conditions in past years. The results will help you decide how hot, cold, wet, or windy it might be!

Date:

Astronomy

Mar. 07, 2012 Rise Set
Actual Time 6:49 AM EST 6:23 PM EST
Civil Twilight 6:21 AM EST 6:50 PM EST
Nautical Twilight 5:49 AM EST 7:22 PM EST
Astronomical Twilight 5:17 AM EST 7:54 PM EST
Moon 5:58 PM EST (3/7) 5:58 AM EST (3/7)
Length of Visible Light 12h 29m
Length of Day
11h 34m
Waxing Gibbous, 99% of the Moon is Illuminated
Mar 7
Waxing Gibbous
Mar 8
Full
Mar 14
Last Quarter
Mar 22
New
Mar 30
First Quarter

Hourly Weather History & Observations

Time (EST) Temp. Windchill Dew Point Humidity Pressure Visibility Wind Dir Wind Speed Gust Speed Precip Events Conditions
12:00 AM 46.2 °F 42.7 °F 20.5 °F 36% 30.24 in 10.0 mi South 6.9 mph - N/A   Clear
12:22 AM 46.2 °F 42.7 °F 20.7 °F 36% 30.23 in 10.0 mi South 6.9 mph - N/A   Clear
12:42 AM 46.8 °F - 20.8 °F 36% 30.23 in 10.0 mi South 8.1 mph - N/A   Clear
1:00 AM 46.8 °F - 21.0 °F 36% 30.23 in 10.0 mi South 8.1 mph - N/A   Clear
1:22 AM 47.3 °F - 21.4 °F 36% 30.23 in 10.0 mi South 5.8 mph - N/A   Clear
1:42 AM 46.8 °F - 22.3 °F 38% 30.24 in 10.0 mi South 6.9 mph - N/A   Clear
2:00 AM 46.9 °F - 22.3 °F 38% 30.24 in 10.0 mi South 5.8 mph - N/A   Clear
2:22 AM 46.9 °F - 22.5 °F 38% 30.25 in 10.0 mi South 6.9 mph - N/A   Clear
2:42 AM 46.0 °F 44.8 °F 23.0 °F 40% 30.25 in 10.0 mi South 3.5 mph - N/A   Clear
3:00 AM 45.5 °F 44.2 °F 23.2 °F 41% 30.26 in 10.0 mi South 3.5 mph - N/A   Clear
3:23 AM 45.3 °F 42.3 °F 23.5 °F 42% 30.26 in 10.0 mi SSW 5.8 mph - N/A   Clear
3:42 AM 46.2 °F 43.3 °F 23.7 °F 41% 30.27 in 10.0 mi SSW 5.8 mph - N/A   Clear
4:00 AM 46.9 °F - 23.5 °F 40% 30.27 in 10.0 mi SSW 5.8 mph - N/A   Clear
4:22 AM 47.3 °F - 23.9 °F 40% 30.27 in 10.0 mi SSW 8.1 mph - N/A   Clear
5:00 AM 48.0 °F - 22.8 °F 37% 30.28 in 10.0 mi South 6.9 mph - N/A   Clear
5:22 AM 48.2 °F - 22.8 °F 37% 30.28 in 10.0 mi SSW 8.1 mph - N/A   Clear
6:00 AM 47.7 °F - 23.0 °F 38% 30.29 in 10.0 mi SSW 6.9 mph - N/A   Clear
6:23 AM 47.7 °F - 22.8 °F 38% 30.29 in 10.0 mi SSW 6.9 mph - N/A   Clear
6:42 AM 47.8 °F - 23.0 °F 38% 30.30 in 10.0 mi SW 6.9 mph - N/A   Clear
7:00 AM 47.7 °F - 23.2 °F 38% 30.30 in 10.0 mi SSW 6.9 mph - N/A   Clear
7:23 AM 47.5 °F - 23.7 °F 39% 30.30 in 10.0 mi SSW 6.9 mph - N/A   Clear
7:42 AM 48.0 °F - 23.5 °F 38% 30.30 in 10.0 mi SSW 8.1 mph - N/A   Clear
8:00 AM 48.2 °F - 23.9 °F 39% 30.30 in 10.0 mi SSW 6.9 mph - N/A   Clear
8:22 AM 48.7 °F - 23.9 °F 38% 30.31 in 10.0 mi SW 10.4 mph 25.3 mph N/A   Clear
8:42 AM 49.6 °F - 24.1 °F 37% 30.31 in 10.0 mi SW 9.2 mph 20.7 mph N/A   Clear
9:00 AM 50.0 °F - 24.6 °F 37% 30.31 in 10.0 mi SSW 6.9 mph 21.9 mph N/A   Clear
9:23 AM 50.9 °F - 25.3 °F 37% 30.31 in 10.0 mi SW 11.5 mph 24.2 mph N/A   Clear
9:42 AM 51.4 °F - 26.1 °F 37% 30.31 in 10.0 mi SW 11.5 mph 26.5 mph N/A   Clear
10:00 AM 51.6 °F - 26.6 °F 38% 30.30 in 10.0 mi SW 10.4 mph 20.7 mph N/A   Clear
10:23 AM 52.5 °F - 27.1 °F 38% 30.30 in 10.0 mi SW 10.4 mph 21.9 mph N/A   Clear
10:42 AM 52.9 °F - 27.3 °F 37% 30.30 in 10.0 mi SW 9.2 mph 24.2 mph N/A   Clear
11:00 AM 53.4 °F - 27.5 °F 37% 30.29 in 10.0 mi SW 8.1 mph 21.9 mph N/A   Clear
11:23 AM 54.5 °F - 27.9 °F 36% 30.29 in 10.0 mi SW 10.4 mph 21.9 mph N/A   Clear
11:42 AM 55.4 °F - 28.6 °F 36% 30.28 in 10.0 mi SW 11.5 mph 21.9 mph N/A   Clear
12:00 PM 56.5 °F - 29.1 °F 35% 30.27 in 10.0 mi SSW 9.2 mph 17.3 mph N/A   Clear
12:22 PM 57.9 °F - 29.7 °F 34% 30.26 in 10.0 mi SSW 9.2 mph 23.0 mph N/A   Clear
12:42 PM 59.4 °F - 30.0 °F 33% 30.25 in 10.0 mi SW 11.5 mph 20.7 mph N/A   Clear
1:00 PM 59.2 °F - 30.2 °F 33% 30.23 in 10.0 mi SSW 11.5 mph 21.9 mph N/A   Clear
1:22 PM 60.8 °F - 30.4 °F 32% 30.22 in 10.0 mi SSW 12.7 mph 27.6 mph N/A   Clear
1:42 PM 61.5 °F - 31.5 °F 32% 30.20 in 10.0 mi SSW 15.0 mph 24.2 mph N/A   Clear
2:00 PM 63.0 °F - 31.6 °F 31% 30.19 in 10.0 mi SSW 13.8 mph 21.9 mph N/A   Clear
2:23 PM 63.7 °F - 32.2 °F 31% 30.18 in 10.0 mi SW 9.2 mph 19.6 mph N/A   Clear
2:42 PM 63.5 °F - 32.0 °F 31% 30.18 in 10.0 mi SW 15.0 mph 24.2 mph N/A   Clear
3:00 PM 63.7 °F - 32.4 °F 31% 30.18 in 10.0 mi SW 10.4 mph 28.8 mph N/A   Clear
3:23 PM 63.7 °F - 33.6 °F 33% 30.17 in 10.0 mi SW 11.5 mph 28.8 mph N/A   Clear
3:42 PM 64.4 °F - 34.5 °F 33% 30.17 in 10.0 mi SW 13.8 mph 24.2 mph N/A   Clear
4:00 PM 64.2 °F - 34.9 °F 34% 30.16 in 10.0 mi SW 11.5 mph 28.8 mph N/A   Clear
4:22 PM 64.8 °F - 35.4 °F 34% 30.15 in 10.0 mi SW 13.8 mph 33.4 mph N/A   Clear
4:42 PM 64.9 °F - 35.8 °F 34% 30.14 in 10.0 mi SSW 10.4 mph 26.5 mph N/A   Clear
5:00 PM 64.8 °F - 36.0 °F 34% 30.14 in 10.0 mi SSW 10.4 mph 20.7 mph N/A   Clear
5:23 PM 63.5 °F - 35.8 °F 36% 30.14 in 10.0 mi South 9.2 mph 17.3 mph N/A   Clear
5:42 PM 63.7 °F - 36.3 °F 36% 30.14 in 10.0 mi SSW 6.9 mph - N/A   Clear
6:00 PM 63.0 °F - 36.7 °F 38% 30.13 in 10.0 mi SSW 8.1 mph 17.3 mph N/A   Clear
6:22 PM 61.9 °F - 36.9 °F 39% 30.14 in 10.0 mi South 5.8 mph - N/A   Clear
6:42 PM 60.8 °F - 37.4 °F 42% 30.14 in 10.0 mi South 4.6 mph - N/A   Clear
7:00 PM 60.4 °F - 37.4 °F 42% 30.14 in 10.0 mi South 3.5 mph - N/A   Clear
7:22 PM 59.5 °F - 37.6 °F 44% 30.13 in 10.0 mi South 3.5 mph - N/A   Clear
7:42 PM 59.9 °F - 37.6 °F 44% 30.13 in 10.0 mi SSW 4.6 mph - N/A   Clear
8:00 PM 59.2 °F - 37.8 °F 45% 30.13 in 10.0 mi Calm Calm - N/A   Clear
8:22 PM 58.3 °F - 37.8 °F 46% 30.12 in 10.0 mi South 3.5 mph - N/A   Clear
8:42 PM 57.6 °F - 37.8 °F 48% 30.13 in 10.0 mi South 3.5 mph - N/A   Clear
9:00 PM 57.0 °F - 37.6 °F 48% 30.14 in 10.0 mi Calm Calm - N/A   Clear
9:22 PM 55.0 °F - 37.6 °F 52% 30.14 in 10.0 mi Calm Calm - N/A   Clear
9:42 PM 56.3 °F - 37.6 °F 50% 30.14 in 10.0 mi SW 5.8 mph - N/A   Clear
10:00 PM 56.8 °F - 37.4 °F 48% 30.13 in 10.0 mi SW 4.6 mph - N/A   Clear
10:22 PM 57.0 °F - 37.4 °F 48% 30.13 in 10.0 mi SSW 3.5 mph - N/A   Clear
10:42 PM 57.0 °F - 37.2 °F 48% 30.13 in 10.0 mi SSW 5.8 mph - N/A   Clear
11:00 PM 57.0 °F - 37.2 °F 48% 30.13 in 10.0 mi SSW 6.9 mph - N/A   Clear
11:23 PM 57.2 °F - 36.9 °F 47% 30.12 in 10.0 mi SSW 9.2 mph - N/A   Clear
11:42 PM 57.2 °F - 36.7 °F 46% 30.12 in 10.0 mi SSW 5.8 mph - N/A   Clear